COSMOS 2251 DEB, 35290

Orbit data source: Space-Track

COSMOS 2251 DEB, 35290 is space debris in LEO originally from a launch on Wed, 16 Jun 1993 UTC launched from the Plesetsk Missile And Space Complex (PKMTR). The debris from Iridium 33, an American commercial communications satellite, has been tracked extensively since its accidental collision with the defunct Russian satellite Cosmos 2251 in 2009. This event, occurring at high speed in low Earth orbit (LEO), generated thousands of pieces of space debris, significantly increasing the risk of further collisions. The Iridium 33 debris cloud has impacted space traffic management and orbital debris mitigation strategies, making it a subject of ongoing study in space situational awareness.

Loading next visibility...
Identifier
35290, 1993-036AJU
Orbit
LEO
Country
Flag of CISCIS
Related business
Manufacturer
Unknown
Mission
Spacecraft
Bus & Motor
Unknown
Mass
Unknown
Launch date (UTC)
1993-06-16 (33 years ago)
Launch vehicle
Unknown
Launch site
Plesetsk Missile And Space Complex (PKMTR)
Object type
Payload
Rocket body
Debris
Shape & HBR
Unknown shape, 0.1 m
Radar Cross Section
Small (<0.1 m²)

Expand to show TLE details & history
Last TLE update: 9 hours ago

TLE from 9 hours ago
0 COSMOS 2251 DEB
1 35290U 93036AJU 26144.85399585  .00012275  00000-0  14195-2 0  9998
2 35290  74.0016  95.8525 0007587 191.0235 169.0779 14.85583836903766
Epoch: 2026-05-24T20:29Z
TLE epoch observation values (Epoch: 2026-05-24T20:29:45.241Z)
Latitude
-0.00003°
Longitude
-94.03618°
Altitude
619.631 km
Speed
7.546 km/s
True Right ascension
06h 23m 24s
True Declination
0° 00' 00"
Sunlit
Object was in daylight at epoch
Visualization orbit readout
Latitude
Unknown
Longitude
Unknown
Altitude
Unknown
Speed
Unknown
Apparent Right ascension
Unknown
Apparent Declination
Unknown
Sunlit
N/A
Visualization observer readout
Local Sidereal Time
14:45:50
Azimuth
Unknown
Elevation
Unknown
Doppler factor
Unknown
Orbital elements
Apogee altitude
614.628 km
Perigee altitude
604.025 km
Semi-major axis
6,987.463 km
Eccentricity
0.00076
Inclination
74.0016°
RAAN
95.8525°
Arg. of periapsis
191.0235°
True anomaly
169.09436°
Mean anomaly
169.0779°
Eccentric anomaly
169.08613°
Mean motion
3.7159 °/min
Orbital period
96.88 mins
BSTAR
0.0014195
Loading maneuver chart data...
Computing Atmospheric mass density...

Documentation

Showing up to 5 results
|